Date String (YYYY-MM-DD hh:mm:ss) UTC,Instrument flags,Ambient pressure (hPa),Sample flow (lpm),Bypass flow (lpm),Sample temperature (°C),Ambient temperature (°C),ASC tube jacket temperature (°C),LED temperature (°C),Box temperature (°C),Sample RH (%),Span deviation,Mass concentration (μg/m³),Mass concentration (μg/m³),Mass concentration (μg/m³)
DateTimeUTC,F1_M11,P_M11,Q1_M11,Q2_M11,T1_M11,T2_M11,T3_M11,T4_M11,T5_M11,U1_M11,ZSPAN_M11,X0_M11,X2_M11,X1_M11
2021-10-03 23:00:00,,0829.5,4.99,0.00,29.5,28.7,00.0,38.4,31.5,11.2,0000.0,0007.81,0003.82,0003.50
2021-10-03 23:01:00,,0829.5,5.01,0.00,29.6,28.8,00.0,38.5,31.5,11.4,0000.0,0007.84,0003.86,0003.51
2021-10-03 23:02:00,,0829.5,4.99,0.00,29.6,28.9,00.0,38.5,31.6,11.6,0000.9,0008.32,0003.92,0003.53
2021-10-03 23:03:00,,0829.5,4.99,0.00,29.7,28.9,00.0,38.5,31.7,11.6,0001.1,0008.67,0003.94,0003.54
2021-10-03 23:04:00,,0829.5,5.02,0.00,29.7,27.9,00.0,38.5,31.4,11.3,0001.1,0009.34,0003.95,0003.55
2021-10-03 23:05:00,,0829.5,4.99,0.00,29.5,25.9,00.0,38.5,30.9,11.0,0000.2,0009.22,0003.95,0003.55
2021-10-03 23:06:00,,0829.5,5.01,0.00,29.4,25.7,00.0,38.5,30.7,11.1,0000.5,0008.82,0003.94,0003.54
2021-10-03 23:07:00,,0829.4,5.00,0.00,29.3,26.1,00.0,38.5,30.8,11.0,0000.2,0009.57,0003.94,0003.52
2021-10-03 23:08:00,,0829.5,5.00,0.00,29.3,26.6,00.0,38.4,30.9,11.2,0000.3,0009.17,0003.96,0003.52
2021-10-03 23:09:00,,0829.5,5.01,0.00,29.3,27.0,00.0,38.4,31.0,11.6,0000.5,0009.23,0003.96,0003.52
2021-10-03 23:10:00,,0829.5,5.00,0.00,29.3,27.4,00.0,38.4,31.1,11.3,0000.7,0009.38,0003.97,0003.52
2021-10-03 23:11:00,,0829.5,5.00,0.00,29.4,27.7,00.0,38.4,31.2,11.2,0000.9,0009.37,0003.96,0003.52
2021-10-03 23:12:00,,0829.5,4.99,0.00,29.4,28.0,00.0,38.4,31.3,11.1,0001.1,0009.29,0003.93,0003.51
2021-10-03 23:13:00,,0829.5,5.00,0.00,29.5,28.2,00.0,38.4,31.4,11.3,0001.1,0008.95,0003.90,0003.49
2021-10-03 23:14:00,,0829.5,5.01,0.00,29.5,28.4,00.0,38.4,31.4,11.2,0001.3,0008.49,0003.86,0003.48
2021-10-03 23:15:00,,0829.5,5.00,0.00,29.6,28.6,00.0,38.5,31.5,11.3,0000.5,0007.78,0003.82,0003.46
2021-10-03 23:16:00,,0829.5,4.99,0.00,29.6,28.7,00.0,38.5,31.5,11.3,0001.5,0007.73,0003.80,0003.46
2021-10-03 23:17:00,,0829.5,5.00,0.00,29.7,28.8,00.0,38.5,31.6,11.2,0001.7,0007.73,0003.80,0003.46
2021-10-03 23:18:00,,0829.5,5.01,0.00,29.7,28.9,00.0,38.5,31.6,11.0,0001.9,0006.46,0003.80,0003.47
2021-10-03 23:19:00,,0829.5,4.99,0.00,29.7,27.7,00.0,38.6,31.3,11.0,0001.7,0006.41,0003.80,0003.48
2021-10-03 23:20:00,,0829.5,5.00,0.00,29.5,25.8,00.0,38.5,30.8,11.0,0001.9,0007.39,0003.79,0003.48
2021-10-03 23:21:00,,0829.5,5.00,0.00,29.4,25.7,00.0,38.5,30.8,11.3,0001.5,0007.82,0003.79,0003.49
2021-10-03 23:22:00,,0829.5,4.99,0.00,29.3,26.2,00.0,38.5,30.8,11.2,0001.0,0008.80,0003.81,0003.49
2021-10-03 23:23:00,,0829.6,5.01,0.00,29.3,26.6,00.0,38.4,30.9,11.2,0001.2,0008.88,0003.83,0003.50
2021-10-03 23:24:00,,0829.6,5.00,0.00,29.3,27.1,00.0,38.4,31.0,11.0,0001.2,0008.81,0003.82,0003.52
2021-10-03 23:25:00,,0829.6,4.99,0.00,29.3,27.4,00.0,38.4,31.1,10.9,0001.4,0008.83,0003.84,0003.53
2021-10-03 23:26:00,,0829.6,4.99,0.00,29.4,27.8,00.0,38.4,31.2,10.9,0001.6,0008.99,0003.86,0003.54
2021-10-03 23:27:00,,0829.6,5.00,0.00,29.4,28.0,00.0,38.4,31.3,10.9,0001.4,0009.05,0003.88,0003.54
2021-10-03 23:28:00,,0829.6,5.00,0.00,29.5,28.2,00.0,38.4,31.4,11.0,0001.4,0009.04,0003.88,0003.54
2021-10-03 23:29:00,,0829.6,4.99,0.00,29.5,28.4,00.0,38.4,31.4,11.2,0001.4,0009.18,0003.91,0003.54
2021-10-03 23:30:00,,0829.5,5.00,0.00,29.6,28.6,00.0,38.5,31.5,11.4,0000.4,0009.20,0003.91,0003.53
2021-10-03 23:31:00,,0829.5,5.00,0.00,29.6,28.7,00.0,38.5,31.6,10.8,0000.0,0008.63,0003.92,0003.54
2021-10-03 23:32:00,,0829.6,5.00,0.00,29.7,28.9,00.0,38.5,31.6,10.8,0000.0,0008.31,0003.94,0003.54
2021-10-03 23:33:00,,0829.5,5.01,0.00,29.7,28.9,00.0,38.6,31.6,11.1,0000.8,0007.35,0003.93,0003.56
2021-10-03 23:34:00,,0829.5,5.00,0.00,29.7,27.6,00.0,38.6,31.3,11.3,0002.6,0007.24,0003.92,0003.56
2021-10-03 23:35:00,,0829.6,5.00,0.00,29.5,25.8,00.0,38.5,30.8,11.7,0002.8,0007.33,0003.92,0003.55
2021-10-03 23:36:00,,0829.5,5.00,0.00,29.4,25.8,00.0,38.5,30.8,11.7,0002.5,0007.33,0003.91,0003.54
2021-10-03 23:37:00,,0829.5,5.00,0.00,29.3,26.2,00.0,38.5,30.8,11.6,0002.4,0007.27,0003.90,0003.54
2021-10-03 23:38:00,,0829.6,4.98,0.00,29.3,26.7,00.0,38.5,30.9,11.7,0002.6,0007.83,0003.89,0003.53
2021-10-03 23:39:00,,0829.6,5.01,0.00,29.3,27.1,00.0,38.4,31.0,11.9,0002.8,0007.84,0003.88,0003.52
2021-10-03 23:40:00,,0829.6,4.98,0.00,29.3,27.5,00.0,38.4,31.1,11.7,0003.1,0007.76,0003.86,0003.53
2021-10-03 23:41:00,,0829.6,4.99,0.00,29.4,27.8,00.0,38.4,31.2,11.3,0002.6,0008.09,0003.87,0003.52
2021-10-03 23:42:00,,0829.7,5.01,0.00,29.4,28.0,00.0,38.4,31.3,11.4,0002.4,0008.21,0003.87,0003.51
2021-10-03 23:43:00,,0829.6,5.00,0.00,29.5,28.2,00.0,38.4,31.4,11.5,0002.2,0008.08,0003.85,0003.49
2021-10-03 23:44:00,,0829.7,5.00,0.00,29.5,28.4,00.0,38.4,31.4,11.7,0002.5,0008.02,0003.86,0003.49
2021-10-03 23:45:00,,0829.6,5.00,0.00,29.6,28.6,00.0,38.5,31.5,11.7,0002.8,0008.11,0003.88,0003.48
2021-10-03 23:46:00,,0829.7,5.01,0.00,29.6,28.7,00.0,38.5,31.6,11.9,0002.6,0008.32,0003.90,0003.48
2021-10-03 23:47:00,,0829.7,5.00,0.00,29.7,28.8,00.0,38.5,31.6,11.8,0002.8,0008.55,0003.93,0003.49
2021-10-03 23:48:00,,0829.8,5.00,0.00,29.7,28.9,00.0,38.6,31.7,11.8,0001.8,0008.44,0003.96,0003.50
2021-10-03 23:49:00,,0829.7,5.00,0.00,29.8,28.5,00.0,38.6,31.6,11.9,0002.0,0007.98,0003.98,0003.53
2021-10-03 23:50:00,,0829.7,5.00,0.00,29.6,26.4,00.0,38.6,31.0,12.1,0002.5,0008.01,0004.01,0003.54
2021-10-03 23:51:00,,0829.7,5.00,0.00,29.5,25.6,00.0,38.5,30.7,11.9,0001.8,0008.13,0004.02,0003.55
2021-10-03 23:52:00,,0829.7,5.01,0.00,29.4,25.9,00.0,38.5,30.7,11.4,0002.1,0008.61,0004.03,0003.56
2021-10-03 23:53:00,,0829.7,4.98,0.00,29.3,26.4,00.0,38.5,30.8,11.7,0002.5,0008.67,0004.04,0003.57
2021-10-03 23:54:00,,0829.8,5.01,0.00,29.3,26.9,00.0,38.4,31.0,12.1,0002.7,0008.51,0004.03,0003.57
2021-10-03 23:55:00,,0829.8,4.99,0.00,29.3,27.3,00.0,38.4,31.1,12.2,0002.6,0008.43,0004.02,0003.57
2021-10-03 23:56:00,,0829.8,5.00,0.00,29.4,27.6,00.0,38.4,31.2,12.3,0002.4,0008.50,0004.04,0003.58
2021-10-03 23:57:00,,0829.8,4.99,0.00,29.4,27.9,00.0,38.4,31.3,12.2,0002.4,0008.35,0004.03,0003.59
2021-10-03 23:58:00,,0829.8,4.99,0.00,29.4,28.2,00.0,38.4,31.3,12.2,0002.5,0008.25,0004.04,0003.59
2021-10-03 23:59:00,,0829.8,5.01,0.00,29.5,28.3,00.0,38.5,31.4,12.3,0002.4,0008.26,0004.04,0003.58
